Location: Antoign�
(47.0844°N, 0.1131°W)
Time: 23:50:47
(UTC+00:00)

CZ-4 R/B - Pass Details

Date: 03 March 2021
Orbit: 532 x 597 km, 97.7° (Epoch: 20 April)

Event Time Altitude Azimuth Distance (km) Brightness Sun altitude
Rises 19:38:16 0° 206° (SSW) 2,668 5.0 -19.3°
Reaches altitude 10° 19:40:59 10° 227° (SW) 1,789 4.4 -19.8°
Maximum altitude 19:43:32 17° 269° (W) 1,415 4.3 -20.2°
Drops below altitude 10° 19:46:07 10° 310° (NW) 1,815 4.9 -20.6°
Sets 19:48:54 0° 331° (NNW) 2,725 5.5 -21.1°
